Weather Roundup
Issued by NWS Springfield, MO

Home | Current Version | Previous Version | Text Only | Print | Product List | Glossary On
Versions: 1 2 3 4 5 6 7 8 9 10 11 12 13 14 15 16 17 18 19 20 21 22 23 24 25 26 27 28 29 30 31 32 33 34 35 36 37 38 39 40 41 42 43 44 45 46 47 48 49 50
000
NZUS99 KSGF 230807
HRRSGF

HOURLY WEATHER
NATIONAL WEATHER SERVICE SPRINGFIELD MO
300 AM CDT WED AUG 23 2017

......SGF CWA......

CITY           SKY/WX    TMP DP  RH WIND       PRES   REMARKS
SPRINGFIELD    PTCLDY    65  63  93 NE6       30.12R
JOPLIN         MOCLDY    67  64  90 NE5       30.12S
WEST PLAINS    PTCLDY    67  62  84 NE7       30.10S
ROLLA          CLEAR     60  56  86 N5        30.13R
OSAGE BEACH    CLOUDY    62  57  83 NE5       30.13S
BRANSON        CLOUDY    70  66  88 CALM      30.11S

......SURROUNDING SGF CWA......

CITY           SKY/WX    TMP DP  RH WIND       PRES   REMARKS
CHANUTE        PTCLDY    63  57  81 N7        30.14F
PARSONS        CLOUDY    64  57  78 N6        30.13F
COFFEYVILLE    CLOUDY    65  59  81 NE7       30.11S
EMPORIA        CLEAR     58  54  86 NE6       30.16F
GROVE OK       PTCLDY    72  66  83 NE5       30.11R
ROGERS AR      CLOUDY    72  67  84 NE7       30.11R
HARRISON AR    CLOUDY    73  68  84 NE7       30.10S
NEAR YELLVILLE CLOUDY    75  63  64 N8        30.05S

......KANSAS AND MISSOURI......

CITY           SKY/WX    TMP DP  RH WIND       PRES   REMARKS
KANSAS CTY INT CLEAR     59  54  83 NE3       30.17R
DOWNTOWN KC    CLEAR     62  56  80 CALM      30.16R
COLUMBIA       CLEAR     58  54  86 CALM      30.13R
SEDALIA        CLEAR     59  58  96 N3        30.16R
ST JOSEPH      CLEAR     52  52 100 CALM      30.17S
ST LOUIS       CLEAR     63  57  81 N3        30.09S
SPIRIT OF STL  CLEAR     59  58  96 SW3       30.09R
KIRKSVILLE     CLEAR     53  32  44 NW5       30.15S
WICHITA        PTCLDY    65  56  72 E7        30.16S
TOPEKA         CLEAR     57  57 100 CALM      30.17R
OLATHE         CLEAR     60  54  80 NE6       30.16S

......TENNESSEE......

CITY           SKY/WX    TMP DP  RH WIND       PRES   REMARKS
MEMPHIS        MOCLDY    76  72  87 N6        29.99F
NASHVILLE      CLOUDY    72  70  93 NW7       29.99F

......ARKANSAS.......

CITY           SKY/WX    TMP DP  RH WIND       PRES   REMARKS
FAYETTEVILLE   CLOUDY    74  72  93 CALM      30.09R
FT SMITH       LGT RAIN  74  73  97 E5        30.05R
LITTLE ROCK    CLOUDY    76  73  91 CALM      30.01F

......OKLAHOMA.......

CITY           SKY/WX    TMP DP  RH WIND       PRES   REMARKS
TULSA          CLOUDY    76  68  76 NE6       30.07R
PONCA CITY     CLOUDY    70  59  68 E10       30.12R
MCALESTER      MOCLDY    74  72  93 N3        30.06F
OKLAHOMA CITY  CLOUDY    72  71  97 S3        30.08S

......IOWA............

CITY           SKY/WX    TMP DP  RH WIND       PRES   REMARKS
DES MOINES     CLEAR     58  55  90 CALM      30.14R
QUAD CITIES    CLEAR     57  51  80 SW5       30.08S

......ILLINOIS........

CITY           SKY/WX    TMP DP  RH WIND       PRES   REMARKS
QUINCY         CLEAR     57  53  86 NW7       30.11R
CHICAGO        CLEAR     63  50  62 NW10      30.01S



USA.gov is the U.S. government's official web portal to all federal, state and local government web resources and services.